User: anonymous
Location: Mentone
(34.5413°N, 85.5351°W)
Time: 06:12:40
(UTC-05:00)
Language:

Centaur AC-72 - Orbit

View from above orbital plane
View from above orbital plane
View from above satellite
View from above satellite

Ground track
Ground track

The orbit data is extracted from the following two-line orbital elements,

1 21907U 92013B   14242.36818803 -.00000109  00000-0  00000+0 0  9152
2 21907 019.0826 236.7596 6959270 275.9135 277.2450 02.25608860185216
Epoch (UTC): 30 August 2014 08:50:11
Eccentricity: 0.6959270
inclination: 19.0826°
perigee height: 1089 km
apogee height: 35267 km
right ascension of ascending node: 236.7596°
argument of perigee: 275.9135°
revolutions per day: 2.25608860
mean anomaly at epoch: 277.2450°
orbit number at epoch: 18521

The dashed part of the orbit path shows where the satellite is in the earth's shadow,  

DLR